Powrót do katalogu

STARLINK-1771

AktywnyŁącznośćVLEO
NORAD 46384·PAYLOAD·🇺🇸 United States

Wystrzelony Sep 3, 2020 z Cape Canaveral Space Force Station

Loading…

Następne Przeloty (najbliższe 24 godziny)

TLE

ŚwieżeSource: CelesTrak SupGP

Epoka: Sep 14, 2026, 20:34 UTC

1 46384C 20062BN  26257.85743056  .00030677  00000+0  21386-3 0  2577
2 46384  53.0325 142.6570 0004212 115.4193  25.5802 15.73627900    16

Śledź STARLINK-1771 w czasie rzeczywistym z AllMySat

Download on the App Store